Location: Newark
(41.8106°N, 83.4933°W)
Time: 06:37:08
(UTC+00:00)

ISS - Visible Passes

Search period start: 18 July 2019 00:00
Search period end: 28 July 2019 00:00
Orbit: 409 x 418 km, 51.6° (Epoch: 18 July)

Date Brightness Start Highest point End Pass type
(mag) Time Alt. Az. Time Alt. Az. Time Alt. Az.
18 Jul -3.9 02:27:01 10° SW 02:30:20 70° SE 02:33:39 10° ENE visible
18 Jul -1.3 04:04:31 10° WNW 04:07:17 23° NNW 04:10:03 10° NE visible
18 Jul -0.5 05:42:49 10° NW 05:44:50 15° N 05:46:52 10° NE visible
18 Jul -1.5 07:19:30 10° NW 07:22:22 26° NNE 07:25:13 10° E visible
18 Jul -3.8 08:55:58 10° WNW 08:59:14 56° SW 09:02:28 10° SE visible
19 Jul -3.3 01:37:58 10° SSW 01:41:06 38° SE 01:44:14 10° ENE visible
19 Jul -1.8 03:14:47 10° W 03:17:49 31° NNW 03:20:52 10° NE visible
19 Jul -0.6 04:53:11 10° NW 04:55:16 15° N 04:57:22 10° NE visible
19 Jul -1.1 06:30:18 10° NW 06:32:53 20° NNE 06:35:26 10° ENE visible
19 Jul -3.8 08:06:38 10° NW 08:09:58 82° NE 08:13:16 10° ESE visible
20 Jul -2.6 02:25:10 10° WSW 02:28:25 47° NNW 02:31:39 10° NE visible
20 Jul -0.7 04:03:25 10° NW 04:05:42 17° N 04:07:59 10° NNE visible
20 Jul -0.8 05:41:02 10° NNW 05:43:20 17° N 05:45:38 10° NE visible
20 Jul -1.5 07:17:22 10° NW 07:18:33 20° NW 07:18:33 20° NW visible
21 Jul -3.6 01:35:42 10° WSW 01:39:02 78° NW 01:42:23 10° NE visible
21 Jul -1.0 03:13:35 10° WNW 03:16:09 20° NNW 03:18:42 10° NE visible
21 Jul -0.7 04:51:39 10° NW 04:53:45 15° N 04:55:51 10° NE visible
21 Jul -1.0 06:28:08 10° NW 06:28:56 15° NW 06:28:56 15° NW visible
22 Jul -1.3 02:23:46 10° W 02:26:37 25° NNW 02:29:28 10° NE visible
22 Jul -0.6 04:02:06 10° NW 04:04:09 15° N 04:06:11 10° NE visible
22 Jul -1.0 05:38:55 10° NW 05:40:27 19° NNW 05:40:27 19° NNW visible
23 Jul -1.9 01:34:01 10° W 01:37:07 34° NNW 01:40:14 10° NE visible
23 Jul -0.7 03:12:24 10° NW 03:14:32 16° N 03:16:40 10° NNE visible
23 Jul -1.2 04:49:39 10° NW 04:52:09 19° NNE 04:52:16 19° NNE visible
24 Jul -0.9 02:22:34 10° WNW 02:24:55 18° NNW 02:27:17 10° NNE visible
24 Jul -1.0 04:00:19 10° NNW 04:02:33 17° N 04:04:13 12° NE visible
24 Jul -0.7 05:36:40 10° NW 05:37:01 12° NW 05:37:01 12° NW visible
25 Jul -1.1 01:32:41 10° WNW 01:35:20 21° NNW 01:37:58 10° NE visible
25 Jul -0.8 03:10:51 10° NW 03:12:55 15° N 03:15:00 10° NE visible
25 Jul -1.2 04:47:24 10° NW 04:49:02 22° NNW 04:49:02 22° NNW visible
26 Jul -0.9 02:21:13 10° NW 02:23:16 15° N 02:25:19 10° NE visible
26 Jul -1.6 03:58:08 10° NW 04:00:51 22° NNE 04:01:06 22° NNE visible
27 Jul -0.9 01:31:25 10° NW 01:33:37 16° N 01:35:48 10° NNE visible
27 Jul -1.2 03:08:48 10° NNW 03:11:14 18° NNE 03:13:13 12° NE visible
27 Jul -1.0 04:45:07 10° NW 04:46:01 17° NW 04:46:01 17° NW visible
